User: anonymous   Login
Location: Caltech
(34.1382°N, 118.1253°W)
Time: 06:07:49
(UTC-07:00)
Language:

OPAL - Orbit

View from above orbital plane
View from above orbital plane
View from above satellite
View from above satellite

Ground track
Ground track

The orbit data is extracted from the following two-line orbital elements,

1 26063U 00004C   16204.80114358  .00000000  00000-0  19885-4 0  9999
2 26063 100.1896 141.7070 0036721 156.0773 204.2124 14.36624598864081
Epoch (UTC): 22 July 2016 19:13:38
Eccentricity: 0.0036721
inclination: 100.1896°
perigee height: 743 km
apogee height: 796 km
right ascension of ascending node: 141.7070°
argument of perigee: 156.0773°
revolutions per day: 14.36624598
mean anomaly at epoch: 204.2124°
orbit number at epoch: 86408

The dashed part of the orbit path shows where the satellite is in the earth's shadow,  

DLR